When you browse on this site, cookies collect data to enhance your experience and personalize the content and advertising you see.
Visit our Privacy Policy to learn more. By continuing to use the site, you agree to this use of cookies and data.
  • En España
  • Lista de países
  • Para 7 días
  • Temperatura del agua
  • El tiempo en el mapa
  • Informadores
  • user-avatar
    Iniciar sesión

    Tiempo cada hora Linares

    Hoy, 8 Abril, Miércoles

    Tiempo Temperatura Precipitaciones Viento Presión Humedad
    00:00 +13°C° 0 mm 0 mps 746 mmHg 37%
    01:00 +13°C° 0 mm 1 mps 745 mmHg 42%
    02:00 +13°C° 0 mm 1 mps 745 mmHg 44%
    03:00 +11°C° 0 mm 0 mps 745 mmHg 46%
    04:00 +11°C° 0 mm 0 mps 745 mmHg 48%
    05:00 +11°C° 0 mm 0 mps 745 mmHg 45%
    06:00 +12°C° 0 mm 0 mps 745 mmHg 43%
    07:00 +13°C° 0 mm 0 mps 745 mmHg 41%
    08:00 +19°C° 0 mm 1 mps 746 mmHg 34%
    09:00 +23°C° 0 mm 1 mps 746 mmHg 26%
    10:00 +27°C° 0 mm 1 mps 746 mmHg 19%
    11:00 +29°C° 0 mm 1 mps 746 mmHg 17%
    12:00 +31°C° 0 mm 1 mps 746 mmHg 15%
    13:00 +34°C° 0 mm 2 mps 745 mmHg 13%
    14:00 +34°C° 0 mm 2 mps 745 mmHg 13%
    15:00 +34°C° 0 mm 2 mps 746 mmHg 13%
    16:00 +34°C° 0 mm 3 mps 746 mmHg 13%
    17:00 +28°C° 0 mm 2 mps 746 mmHg 22%
    18:00 +23°C° 0 mm 1 mps 746 mmHg 31%
    19:00 +18°C° 0 mm 1 mps 746 mmHg 39%
    20:00 +14°C° 0 mm 0 mps 747 mmHg 44%
    21:00 +13°C° 0 mm 0 mps 747 mmHg 49%
    22:00 +12°C° 0 mm 0 mps 747 mmHg 54%
    23:00 +11°C° 0 mm 0 mps 747 mmHg 58%

    Mañana, 9 Abril, Jueves

    Tiempo Temperatura Precipitaciones Viento Presión Humedad
    00:00 +10°C° 0 mm 0 mps 747 mmHg 62%
    01:00 +10°C° 0 mm 0 mps 747 mmHg 65%
    02:00 +9°C° 0 mm 0 mps 747 mmHg 67%
    03:00 +9°C° 0 mm 0 mps 747 mmHg 68%
    04:00 +8°C° 0 mm 0 mps 747 mmHg 69%
    05:00 +9°C° 0 mm 0 mps 747 mmHg 66%
    06:00 +10°C° 0 mm 0 mps 747 mmHg 62%
    07:00 +11°C° 0 mm 0 mps 747 mmHg 58%
    08:00 +15°C° 0 mm 0 mps 747 mmHg 48%
    09:00 +20°C° 0 mm 1 mps 747 mmHg 38%
    10:00 +24°C° 0 mm 1 mps 747 mmHg 28%
    11:00 +26°C° 0 mm 1 mps 746 mmHg 24%
    12:00 +28°C° 0 mm 1 mps 746 mmHg 21%
    13:00 +30°C° 0 mm 2 mps 746 mmHg 17%
    14:00 +30°C° 0 mm 2 mps 746 mmHg 18%
    15:00 +30°C° 0 mm 2 mps 746 mmHg 18%
    16:00 +30°C° 0 mm 2 mps 746 mmHg 18%
    17:00 +26°C° 0 mm 2 mps 746 mmHg 29%
    18:00 +21°C° 0 mm 2 mps 746 mmHg 41%
    19:00 +16°C° 0 mm 2 mps 746 mmHg 52%
    20:00 +15°C° 0 mm 2 mps 746 mmHg 59%
    21:00 +13°C° 0 mm 1 mps 747 mmHg 66%
    22:00 +12°C° 0 mm 1 mps 747 mmHg 73%
    23:00 +12°C° 0 mm 1 mps 746 mmHg 75%

    Pasado mañana, 10 Abril, Viernes

    Tiempo Temperatura Precipitaciones Viento Presión Humedad
    00:00 +11°C° 0 mm 1 mps 746 mmHg 78%
    01:00 +11°C° 0 mm 1 mps 746 mmHg 80%
    02:00 +10°C° 0 mm 1 mps 746 mmHg 81%
    03:00 +9°C° 0 mm 0 mps 746 mmHg 82%
    04:00 +9°C° 0 mm 0 mps 746 mmHg 83%
    05:00 +9°C° 0 mm 0 mps 746 mmHg 81%
    06:00 +10°C° 0 mm 0 mps 746 mmHg 80%
    07:00 +10°C° 0 mm 0 mps 746 mmHg 79%
    08:00 +14°C° 0 mm 1 mps 746 mmHg 67%
    09:00 +19°C° 0 mm 1 mps 746 mmHg 54%
    10:00 +21°C° 0 mm 2 mps 746 mmHg 42%
    11:00 +24°C° 0 mm 2 mps 746 mmHg 36%
    12:00 +26°C° 0 mm 2 mps 746 mmHg 31%
    13:00 +28°C° 0 mm 3 mps 745 mmHg 25%
    14:00 +28°C° 0 mm 3 mps 745 mmHg 23%
    15:00 +28°C° 0 mm 3 mps 745 mmHg 21%
    16:00 +28°C° 0 mm 3 mps 745 mmHg 20%
    17:00 +25°C° 0 mm 3 mps 746 mmHg 34%
    18:00 +20°C° 0 mm 2 mps 746 mmHg 48%
    19:00 +16°C° 0 mm 2 mps 746 mmHg 61%
    20:00 +15°C° 0 mm 2 mps 747 mmHg 68%
    21:00 +14°C° 0 mm 2 mps 747 mmHg 75%
    22:00 +14°C° 0 mm 2 mps 747 mmHg 82%
    23:00 +13°C° 0 mm 2 mps 747 mmHg 83%

    11 Abril, Sábado

    Tiempo Temperatura Precipitaciones Viento Presión Humedad
    00:00 +13°C° 0 mm 2 mps 747 mmHg 85%
    01:00 +12°C° 0 mm 1 mps 746 mmHg 86%
    02:00 +12°C° 0 mm 1 mps 746 mmHg 87%
    03:00 +11°C° 0 mm 1 mps 747 mmHg 87%
    04:00 +11°C° 0 mm 1 mps 747 mmHg 87%
    05:00 +11°C° 0 mm 1 mps 747 mmHg 87%
    06:00 +11°C° 0 mm 1 mps 747 mmHg 86%
    07:00 +11°C° 0 mm 1 mps 747 mmHg 85%
    08:00 +14°C° 0 mm 1 mps 747 mmHg 75%
    09:00 +16°C° 0 mm 2 mps 747 mmHg 64%
    10:00 +18°C° 0 mm 2 mps 747 mmHg 54%
    11:00 +20°C° 0 mm 2 mps 747 mmHg 47%
    12:00 +24°C° 0 mm 2 mps 746 mmHg 40%
    13:00 +26°C° 0 mm 2 mps 746 mmHg 32%
    14:00 +25°C° 0 mm 2 mps 746 mmHg 32%
    15:00 +25°C° 0 mm 3 mps 746 mmHg 32%
    16:00 +25°C° 0 mm 3 mps 746 mmHg 31%
    17:00 +22°C° 0 mm 3 mps 746 mmHg 33%
    18:00 +19°C° 0 mm 2 mps 746 mmHg 34%
    19:00 +17°C° 0 mm 2 mps 747 mmHg 36%
    20:00 +16°C° 0 mm 2 mps 747 mmHg 37%
    21:00 +15°C° 0 mm 2 mps 747 mmHg 38%
    22:00 +14°C° 0 mm 2 mps 747 mmHg 40%
    23:00 +13°C° 0 mm 2 mps 747 mmHg 45%

    12 Abril, Domingo

    Tiempo Temperatura Precipitaciones Viento Presión Humedad
    00:00 +10°C° 0 mm 2 mps 747 mmHg 50%
    01:00 +9°C° 0 mm 2 mps 747 mmHg 55%
    02:00 +9°C° 0 mm 1 mps 747 mmHg 62%
    03:00 +8°C° 0 mm 1 mps 747 mmHg 70%
    04:00 +7°C° 0 mm 1 mps 747 mmHg 77%
    05:00 +7°C° 0 mm 1 mps 747 mmHg 77%
    06:00 +7°C° 0 mm 1 mps 747 mmHg 76%
    07:00 +8°C° 0 mm 1 mps 748 mmHg 76%
    08:00 +11°C° 0 mm 1 mps 748 mmHg 63%
    09:00 +14°C° 0 mm 2 mps 748 mmHg 50%
    10:00 +17°C° 0 mm 2 mps 748 mmHg 38%
    11:00 +19°C° 0 mm 2 mps 748 mmHg 33%
    12:00 +21°C° 0 mm 2 mps 748 mmHg 28%
    13:00 +24°C° 0 mm 2 mps 748 mmHg 23%
    14:00 +24°C° 0 mm 3 mps 748 mmHg 23%
    15:00 +22°C° 0 mm 3 mps 748 mmHg 23%
    16:00 +22°C° 0 mm 3 mps 748 mmHg 23%
    17:00 +19°C° 0 mm 2 mps 748 mmHg 31%
    18:00 +16°C° 0 mm 2 mps 749 mmHg 39%
    19:00 +12°C° 0 mm 2 mps 749 mmHg 47%
    20:00 +10°C° 0 mm 2 mps 750 mmHg 55%
    21:00 +9°C° 0 mm 2 mps 750 mmHg 64%
    22:00 +9°C° 0 mm 1 mps 751 mmHg 73%
    23:00 +8°C° 0 mm 1 mps 751 mmHg 76%

    13 Abril, Lunes

    Tiempo Temperatura Precipitaciones Viento Presión Humedad
    00:00 +7°C° 0 mm 1 mps 751 mmHg 79%
    01:00 +7°C° 0 mm 1 mps 751 mmHg 82%
    02:00 +6°C° 0 mm 1 mps 751 mmHg 82%
    03:00 +6°C° 0 mm 1 mps 750 mmHg 83%
    04:00 +6°C° 0 mm 1 mps 750 mmHg 84%
    05:00 +6°C° 0 mm 1 mps 750 mmHg 83%
    06:00 +6°C° 0 mm 1 mps 751 mmHg 81%
    07:00 +7°C° 0 mm 1 mps 751 mmHg 80%
    08:00 +10°C° 0 mm 1 mps 750 mmHg 66%
    09:00 +13°C° 0 mm 2 mps 750 mmHg 52%
    10:00 +17°C° 0 mm 2 mps 750 mmHg 38%
    11:00 +19°C° 0 mm 2 mps 749 mmHg 33%
    12:00 +21°C° 0 mm 3 mps 749 mmHg 27%
    13:00 +24°C° 0 mm 3 mps 749 mmHg 22%
    14:00 +24°C° 0 mm 3 mps 748 mmHg 21%
    15:00 +24°C° 0 mm 3 mps 748 mmHg 21%
    16:00 +24°C° 0 mm 3 mps 748 mmHg 21%
    17:00 +20°C° 0 mm 3 mps 748 mmHg 26%
    18:00 +17°C° 0 mm 2 mps 748 mmHg 32%
    19:00 +14°C° 0 mm 2 mps 748 mmHg 38%
    20:00 +13°C° 0 mm 2 mps 749 mmHg 42%
    21:00 +10°C° 0 mm 2 mps 749 mmHg 47%
    22:00 +9°C° 0 mm 2 mps 749 mmHg 51%
    23:00 +9°C° 0 mm 2 mps 749 mmHg 55%
    Mostrar más